GW2867 Weather Reports


Display with metric or nautical units.
time (UTC)temp
F
wind
direction
speed
MPH
gust
MPH
rain 1hr
in
rain 24hr
in
rain mn
in
humidity
%
barometer
mb
20260510190203 69 258 0.0 1.0 0.00 0.08 0.00 68 1009.4
20260510185704 69 215 2.0 5.0 0.00 0.08 0.00 69 1009.4
20260510185203 69 272 1.0 7.0 0.00 0.08 0.00 69 1009.4
20260510184703 69 69 1.0 3.0 0.00 0.08 0.00 68 1009.4
20260510184203 69 166 1.0 7.0 0.00 0.08 0.00 67 1009.2
20260510183703 70 229 2.0 3.0 0.00 0.08 0.00 67 1009.4
20260510183204 70 170 2.0 5.0 0.00 0.08 0.00 67 1009.4
20260510182203 68 84 0.0 5.0 0.00 0.08 0.00 70 1009.3
20260510181704 69 116 1.0 3.0 0.00 0.08 0.00 69 1009.4
20260510175703 70 212 1.0 5.0 0.00 0.08 0.00 69 1009.4
20260510175204 68 180 2.0 3.0 0.00 0.08 0.00 71 1009.5
20260510174704 67 238 2.0 3.0 0.00 0.08 0.00 71 1009.6
20260510174204 67 248 0.0 2.0 0.00 0.08 0.00 72 1009.7
20260510173704 67 308 1.0 2.0 0.00 0.08 0.00 71 1009.5
20260510173204 67 251 2.0 7.0 0.00 0.09 0.00 70 1009.4
20260510172704 68 222 4.0 7.0 0.00 0.09 0.00 69 1009.5
20260510172205 68 246 2.0 6.0 0.00 0.09 0.00 68 1009.4
20260510171703 69 251 2.0 6.0 0.00 0.09 0.00 67 1009.4
20260510171203 69 241 2.0 3.0 0.00 0.09 0.00 67 1009.4
20260510170704 69 269 2.0 6.0 0.00 0.10 0.00 68 1009.5
20260510170205 69 267 2.0 6.0 0.00 0.10 0.00 70 1009.6
20260510165703 68 42 2.0 5.0 0.00 0.10 0.00 71 1009.6
20260510165205 67 279 1.0 7.0 0.00 0.10 0.00 72 1009.8
20260510164704 67 205 1.0 6.0 0.00 0.11 0.00 73 1009.9
20260510163204 67 264 2.0 5.0 0.00 0.11 0.00 73 1010.1
20260510162703 67 240 1.0 7.0 0.00 0.11 0.00 74 1010.0
20260510162203 66 139 2.0 7.0 0.00 0.11 0.00 74 1010.2
20260510161204 67 273 2.0 6.0 0.00 0.12 0.00 74 1010.2
20260510160704 67 262 1.0 3.0 0.00 0.12 0.00 74 1010.2
20260510155703 66 275 2.0 6.0 0.00 0.12 0.00 77 1010.3
20260510155204 65 199 2.0 6.0 0.00 0.12 0.00 78 1010.4
20260510154704 65 208 2.0 5.0 0.00 0.12 0.00 79 1010.5
20260510154204 64 259 2.0 5.0 0.00 0.12 0.00 80 1010.6
20260510153704 63 264 2.0 6.0 0.00 0.12 0.00 81 1010.6
20260510153204 63 144 2.0 6.0 0.00 0.12 0.00 80 1010.6
20260510152204 62 181 2.0 8.0 0.00 0.13 0.00 82 1010.7
20260510151703 62 196 3.0 7.0 0.00 0.13 0.00 82 1010.8
20260510151203 62 174 2.0 7.0 0.00 0.13 0.00 82 1010.9
20260510150704 62 122 2.0 8.0 0.00 0.13 0.00 84 1010.9
20260510145704 61 227 1.0 5.0 0.00 0.13 0.00 85 1010.9
20260510144703 60 203 2.0 6.0 0.00 0.13 0.00 86 1010.7
20260510144203 60 187 2.0 8.0 0.00 0.13 0.00 87 1010.8
20260510143703 60 217 1.0 5.0 0.00 0.13 0.00 87 1010.8
20260510143204 60 179 1.0 3.0 0.00 0.13 0.00 88 1010.9
20260510142704 60 153 2.0 6.0 0.00 0.13 0.00 88 1010.9
20260510142203 59 200 2.0 5.0 0.00 0.13 0.00 89 1010.9
20260510141203 58 199 0.0 2.0 0.00 0.14 0.00 90 1010.8
20260510140704 58 119 0.0 3.0 0.00 0.14 0.00 90 1010.9
20260510140203 58 139 0.0 1.0 0.00 0.14 0.00 90 1011.0
20260510134703 57 140 0.0 0.0 0.00 0.15 0.00 92 1010.9
20260510134203 57 140 0.0 0.0 0.00 0.15 0.00 92 1010.9
20260510133704 57 140 0.0 0.0 0.00 0.15 0.00 92 1011.0
20260510133204 57 140 0.0 1.0 0.00 0.15 0.00 92 1011.0
20260510132704 57 140 0.0 0.0 0.00 0.15 0.00 92 1011.1
20260510132203 57 140 0.0 0.0 0.00 0.15 0.00 92 1011.1
20260510131703 57 140 0.0 1.0 0.00 0.15 0.00 93 1011.0
20260510131203 56 220 0.0 1.0 0.00 0.15 0.00 93 1010.9
20260510130704 56 160 0.0 0.0 0.00 0.15 0.00 94 1010.9
20260510130203 56 160 0.0 0.0 0.00 0.16 0.00 94 1011.0
20260510125703 55 160 0.0 0.0 0.00 0.16 0.00 94 1010.9
20260510124703 55 160 0.0 0.0 0.00 0.16 0.00 94 1010.9
20260510124204 55 160 0.0 0.0 0.00 0.17 0.00 94 1010.7
20260510123704 55 160 0.0 0.0 0.00 0.17 0.00 94 1010.8
20260510122203 55 160 0.0 0.0 0.00 0.18 0.00 94 1010.7
20260510121704 55 5 0.0 1.0 0.00 0.18 0.00 94 1010.7
20260510121204 55 352 0.0 0.0 0.00 0.18 0.00 95 1010.8
20260510120703 55 352 0.0 0.0 0.00 0.18 0.00 95 1010.8
20260510120203 54 352 0.0 0.0 0.00 0.18 0.00 95 1010.7
20260510115703 54 352 0.0 0.0 0.00 0.18 0.00 95 1010.7
20260510115203 54 352 0.0 0.0 0.00 0.18 0.00 95 1010.9
20260510114703 54 352 0.0 0.0 0.00 0.18 0.00 95 1010.9
20260510114203 54 352 0.0 0.0 0.00 0.18 0.00 95 1010.9
20260510113703 54 352 0.0 0.0 0.00 0.18 0.00 95 1010.8
20260510113204 54 352 0.0 0.0 0.00 0.18 0.00 95 1010.9
20260510112704 54 352 0.0 0.0 0.00 0.18 0.00 95 1010.8
20260510112204 54 352 0.0 0.0 0.00 0.18 0.00 95 1010.8
20260510111703 54 352 0.0 0.0 0.00 0.18 0.00 95 1010.7
20260510111203 53 352 0.0 0.0 0.00 0.18 0.00 95 1010.6
20260510110704 53 352 0.0 0.0 0.00 0.18 0.00 95 1010.7
20260510105703 53 352 0.0 0.0 0.00 0.18 0.00 95 1010.6
20260510105203 53 352 0.0 0.0 0.00 0.18 0.00 95 1010.6
20260510104703 53 352 0.0 0.0 0.00 0.19 0.00 95 1010.6
20260510104204 53 352 0.0 0.0 0.00 0.19 0.00 95 1010.6
20260510103204 53 352 0.0 0.0 0.00 0.20 0.00 95 1010.3
20260510102203 53 352 0.0 0.0 0.00 0.20 0.00 95 1010.2
20260510101703 53 352 0.0 0.0 0.00 0.21 0.00 95 1010.2
20260510101204 53 352 0.0 0.0 0.00 0.21 0.00 95 1010.2
20260510100204 53 352 0.0 0.0 0.00 0.22 0.00 95 1010.2
20260510095703 52 352 0.0 0.0 0.00 0.23 0.00 95 1010.1
20260510095204 52 352 0.0 0.0 0.00 0.24 0.00 95 1009.7
20260510094704 52 352 0.0 0.0 0.00 0.24 0.00 95 1009.7
20260510094203 52 352 0.0 0.0 0.00 0.24 0.00 95 1009.6
20260510093703 52 352 0.0 0.0 0.00 0.24 0.00 95 1009.6
20260510092704 52 352 0.0 0.0 0.00 0.25 0.00 95 1009.6
20260510092204 52 352 0.0 0.0 0.00 0.26 0.00 95 1009.6
20260510091704 52 352 0.0 0.0 0.00 0.26 0.00 95 1009.8
20260510090703 51 352 0.0 0.0 0.00 0.27 0.00 95 1009.7
20260510090203 51 352 0.0 0.0 0.00 0.27 0.00 95 1009.7
20260510085704 51 352 0.0 0.0 0.00 0.27 0.00 95 1009.7
20260510085204 52 352 0.0 0.0 0.00 0.27 0.00 95 1009.6
20260510084704 52 352 0.0 0.0 0.00 0.28 0.00 95 1009.9
20260510084204 52 352 0.0 0.0 0.00 0.28 0.00 95 1010.0
20260510083204 51 352 0.0 0.0 0.00 0.28 0.00 95 1010.0
20260510082703 52 352 0.0 0.0 0.00 0.28 0.00 95 1010.0
20260510082204 52 352 0.0 0.0 0.00 0.28 0.00 95 1009.9
20260510081704 51 352 0.0 0.0 0.00 0.28 0.00 95 1010.0
20260510081204 51 352 0.0 0.0 0.00 0.28 0.00 95 1010.1
20260510080203 51 352 0.0 0.0 0.00 0.28 0.00 95 1010.2
20260510075703 51 352 0.0 0.0 0.00 0.28 0.00 95 1010.2
20260510075203 51 352 0.0 0.0 0.00 0.28 0.00 94 1010.2
20260510073704 51 352 0.0 0.0 0.00 0.28 0.00 94 1010.2
20260510073204 51 352 0.0 0.0 0.00 0.28 0.00 94 1010.1
20260510072704 51 352 0.0 0.0 0.00 0.28 0.00 94 1010.0
20260510072203 51 352 0.0 0.0 0.00 0.28 0.00 94 1009.9
20260510071703 51 352 0.0 0.0 0.00 0.28 0.00 94 1009.9
20260510071203 51 352 0.0 0.0 0.00 0.28 0.00 94 1009.7
20260510070704 51 352 0.0 0.0 0.00 0.28 0.00 94 1009.6
20260510070204 51 352 0.0 0.0 0.00 0.28 0.00 94 1009.7
20260510064704 51 352 0.0 0.0 0.00 0.28 0.00 94 1009.6
20260510064205 51 352 0.0 0.0 0.00 0.28 0.00 94 1009.7
20260510063203 51 352 0.0 0.0 0.00 0.28 0.00 94 1009.7
20260510062703 51 352 0.0 0.0 0.00 0.28 0.00 94 1009.7
20260510062203 51 352 0.0 0.0 0.00 0.28 0.00 94 1009.6
20260510061704 51 352 0.0 0.0 0.00 0.28 0.00 94 1009.7
20260510061204 51 352 0.0 0.0 0.00 0.28 0.00 94 1009.5
20260510060703 51 352 0.0 0.0 0.00 0.28 0.00 94 1009.7
20260510060204 51 352 0.0 0.0 0.00 0.28 0.00 95 1009.6
20260510055703 51 352 0.0 0.0 0.00 0.28 0.00 95 1009.6
20260510054704 51 352 0.0 0.0 0.00 0.28 0.00 94 1009.3
20260510054204 52 352 0.0 0.0 0.00 0.28 0.00 94 1009.4
20260510053704 52 352 0.0 0.0 0.00 0.28 0.00 94 1009.6
20260510053204 52 352 0.0 0.0 0.00 0.28 0.00 94 1009.7
20260510052704 52 352 0.0 0.0 0.00 0.28 0.00 95 1009.7
20260510052203 52 352 0.0 0.0 0.00 0.28 0.00 95 1009.7
20260510051704 52 352 0.0 0.0 0.00 0.28 0.00 95 1009.8
20260510051204 52 352 0.0 0.0 0.00 0.28 0.00 95 1009.8
20260510050704 52 352 0.0 0.0 0.00 0.28 0.00 95 1009.6
20260510050204 52 352 0.0 0.0 0.00 0.28 0.00 95 1009.6
20260510045703 52 352 0.0 0.0 0.00 0.28 0.00 95 1009.6
20260510045203 51 352 0.0 0.0 0.00 0.28 0.00 95 1009.5
20260510044704 52 352 0.0 0.0 0.00 0.28 0.00 95 1009.6
20260510044204 52 352 0.0 0.0 0.00 0.28 0.00 95 1009.5
20260510043703 52 352 0.0 0.0 0.00 0.28 0.00 95 1009.6
20260510043203 52 352 0.0 0.0 0.00 0.28 0.00 95 1009.7
20260510042704 52 352 0.0 0.0 0.00 0.28 0.00 95 1009.7
20260510042204 52 352 0.0 0.0 0.00 0.28 0.00 95 1009.7
20260510040704 52 352 0.0 0.0 0.00 0.28 0.00 95 1009.7
20260510040203 52 352 0.0 0.0 0.00 0.28 0.00 95 1009.8
20260510035704 52 352 0.0 0.0 0.00 0.28 0.28 95 1009.7
20260510035204 52 352 0.0 0.0 0.00 0.28 0.28 95 1009.6
20260510034203 52 352 0.0 0.0 0.00 0.28 0.28 95 1009.6
20260510033703 52 352 0.0 0.0 0.00 0.28 0.28 95 1009.7
20260510033203 53 352 0.0 0.0 0.00 0.28 0.28 95 1009.5
20260510032704 53 352 0.0 0.0 0.00 0.28 0.28 95 1009.6
20260510032204 52 352 0.0 0.0 0.00 0.28 0.28 95 1009.8
20260510031203 52 352 0.0 0.0 0.00 0.28 0.28 95 1009.8
20260510030704 52 352 0.0 0.0 0.00 0.28 0.28 95 1009.8
20260510030203 52 352 0.0 0.0 0.00 0.28 0.28 95 1009.8
20260510025703 52 352 0.0 0.0 0.00 0.28 0.28 95 1009.7
20260510025204 52 352 0.0 0.0 0.00 0.28 0.28 95 1009.7
20260510024705 52 352 0.0 0.0 0.00 0.28 0.28 95 1009.8
20260510023703 52 352 0.0 0.0 0.00 0.28 0.28 95 1009.6
20260510022704 52 352 0.0 0.0 0.00 0.28 0.28 95 1009.6
20260510022204 52 352 0.0 0.0 0.00 0.28 0.28 95 1009.6
20260510021203 52 352 0.0 0.0 0.00 0.28 0.28 94 1009.5
20260510020704 52 352 0.0 0.0 0.00 0.28 0.28 94 1009.6
20260510020203 52 352 0.0 0.0 0.00 0.28 0.28 94 1009.9
20260510015703 52 352 0.0 0.0 0.00 0.28 0.28 94 1010.1
20260510015203 52 352 0.0 0.0 0.00 0.28 0.28 94 1010.2
20260510014704 52 352 0.0 0.0 0.00 0.28 0.28 94 1010.2
20260510014204 52 352 0.0 0.0 0.00 0.28 0.28 94 1010.2
20260510013703 52 352 0.0 0.0 0.00 0.28 0.28 94 1010.2
20260510013203 52 352 0.0 0.0 0.00 0.28 0.28 94 1010.2
20260510012704 52 352 0.0 0.0 0.00 0.28 0.28 94 1010.3
20260510012204 52 352 0.0 0.0 0.00 0.28 0.28 94 1010.2
20260510011203 52 352 0.0 0.0 0.00 0.28 0.28 94 1010.0
20260510010205 52 352 0.0 0.0 0.00 0.28 0.28 94 1009.7
20260510005703 52 352 0.0 0.0 0.00 0.28 0.28 94 1009.5
20260510005203 52 352 0.0 0.0 0.00 0.28 0.28 94 1009.5
20260510004704 52 352 0.0 0.0 0.00 0.28 0.28 94 1009.3
20260510003703 52 352 0.0 0.0 0.00 0.28 0.28 94 1009.5
20260510003204 52 352 0.0 0.0 0.00 0.28 0.28 94 1009.3
20260510002703 52 352 0.0 0.0 0.00 0.28 0.28 94 1009.3
20260510001703 52 352 0.0 0.0 0.00 0.28 0.28 94 1009.3
20260510001204 52 352 0.0 0.0 0.00 0.28 0.28 94 1009.3
20260510000704 52 352 0.0 0.0 0.00 0.28 0.28 94 1009.3
20260510000204 52 352 0.0 0.0 0.00 0.28 0.28 94 1009.3
20260509235204 52 352 0.0 0.0 0.00 0.28 0.28 94 1009.3
20260509234204 52 352 0.0 0.0 0.00 0.28 0.28 93 1009.3
20260509233703 52 352 0.0 0.0 0.00 0.28 0.28 93 1009.4
20260509233203 52 352 0.0 0.0 0.00 0.28 0.28 93 1009.5
20260509232204 52 352 0.0 0.0 0.00 0.28 0.28 93 1009.6
20260509231704 52 352 0.0 0.0 0.00 0.28 0.28 93 1009.4
20260509230703 52 352 0.0 0.0 0.00 0.28 0.28 93 1009.3
20260509230205 52 352 0.0 0.0 0.00 0.28 0.28 93 1009.2
20260509225703 52 352 0.0 0.0 0.00 0.28 0.28 93 1009.3
20260509225203 52 352 0.0 0.0 0.00 0.28 0.28 93 1009.3
20260509224704 52 352 0.0 0.0 0.00 0.28 0.28 93 1009.3
20260509224204 52 352 0.0 0.0 0.00 0.28 0.28 93 1009.3
20260509223704 52 352 0.0 0.0 0.00 0.28 0.28 93 1009.2
20260509223203 52 352 0.0 0.0 0.00 0.28 0.28 93 1009.2
20260509222704 52 352 0.0 0.0 0.00 0.28 0.28 93 1009.2
20260509222204 52 352 0.0 0.0 0.00 0.28 0.28 93 1009.3
20260509221704 52 352 0.0 0.0 0.01 0.28 0.28 93 1009.3
20260509221204 52 352 0.0 0.0 0.01 0.28 0.28 93 1009.3
20260509220703 52 352 0.0 0.0 0.01 0.28 0.28 92 1009.3
20260509220204 52 352 0.0 0.0 0.02 0.28 0.28 92 1009.4
20260509215203 51 352 0.0 0.0 0.02 0.28 0.28 92 1009.3
20260509214703 51 352 0.0 0.0 0.02 0.28 0.28 92 1009.4
20260509213704 52 352 0.0 0.0 0.03 0.28 0.28 93 1009.4
20260509213204 51 352 0.0 0.0 0.04 0.28 0.28 93 1009.4
20260509212203 51 352 0.0 0.0 0.04 0.28 0.28 92 1009.5
20260509211704 52 352 0.0 0.0 0.04 0.27 0.27 92 1009.5
20260509211204 52 352 0.0 0.0 0.04 0.27 0.27 92 1009.6
20260509210704 52 352 0.0 0.0 0.04 0.27 0.27 92 1009.6
20260509210203 52 352 0.0 0.0 0.04 0.26 0.26 92 1009.7
20260509205703 52 352 0.0 0.0 0.04 0.26 0.26 92 1009.7
20260509205204 52 352 0.0 0.0 0.04 0.26 0.26 92 1009.8
20260509204704 52 352 0.0 0.0 0.04 0.26 0.26 92 1010.0
20260509204203 51 352 0.0 0.0 0.04 0.25 0.25 92 1010.0
20260509203703 52 352 0.0 0.0 0.04 0.25 0.25 92 1010.0
20260509203203 52 352 0.0 0.0 0.03 0.24 0.24 92 1010.1
20260509202704 52 352 0.0 0.0 0.03 0.24 0.24 92 1010.2
20260509202204 52 352 0.0 0.0 0.03 0.24 0.24 92 1010.3
20260509201203 52 352 0.0 0.0 0.03 0.23 0.23 91 1010.3
20260509200204 52 352 0.0 0.0 0.02 0.22 0.22 91 1010.3
20260509195204 52 352 0.0 0.0 0.02 0.22 0.22 91 1010.4
20260509194704 52 352 0.0 0.0 0.02 0.22 0.22 91 1010.5
20260509194204 52 352 0.0 0.0 0.01 0.21 0.21 91 1010.4
20260509193703 52 352 0.0 0.0 0.01 0.21 0.21 90 1010.4
20260509193204 52 352 0.0 0.0 0.01 0.21 0.21 90 1010.3
20260509192704 52 352 0.0 0.0 0.01 0.21 0.21 91 1010.2
20260509191703 51 352 0.0 0.0 0.00 0.20 0.20 90 1010.4
20260509191204 51 352 0.0 0.0 0.00 0.20 0.20 90 1010.3
20260509190705 51 352 0.0 0.0 0.00 0.20 0.20 90 1010.4